Weather History for Monticello, KY

Change the Weather History Date:

Sunday, April 7, 2013

  Actual Average Record
Temperature  
Mean Temperature 60 °F -  
Max Temperature 73 °F 66 °F 83 °F (1959)
Min Temperature 46 °F 38 °F 22 °F (1982)
Degree Days  
Heating Degree Days 4    
Growing Degree Days 10 (Base 50)    
Moisture  
Dew Point 42 °F    
Average Humidity 45    
Maximum Humidity 86    
Minimum Humidity 33    
Precipitation  
Precipitation 0.00 in - - ()
Sea Level Pressure  
Sea Level Pressure 30.06 in    
Wind  
Wind Speed 12 mph (SSW)    
Max Wind Speed 21 mph    
Max Gust Speed 26 mph    
Visibility 10 miles    
Events      
Averages and records for this station are not official NWS values.
T = Trace of Precipitation, MM = Missing Value Source: NWS Daily Summary

Daily Weather History Graph

Daily Weather History Graph

Search for Another Location

Airport:

Trip Planner

Search our weather history database for the weather conditions in past years. The results will help you decide how hot, cold, wet, or windy it might be!

Date:

Astronomy

Apr. 07, 2013 Rise Set
Actual Time 6:16 AM CDT 7:07 PM CDT
Civil Twilight 5:49 AM CDT 7:33 PM CDT
Nautical Twilight 5:18 AM CDT 8:04 PM CDT
Astronomical Twilight 4:46 AM CDT 8:37 PM CDT
Moon 4:29 AM CDT (4/7) 4:41 PM CDT (4/7)
Length of Visible Light 13h 43m
Length of Day
12h 51m
Waning Crescent, 8% of the Moon is Illuminated
Apr 7
Waning Crescent
Apr 10
New
Apr 18
First Quarter
Apr 25
Full
May 2
Last Quarter

Hourly Weather History & Observations

Time (CDT) Temp. Dew Point Humidity Pressure Visibility Wind Dir Wind Speed Gust Speed Precip Events Conditions
12:56 AM 61.9 °F 36.0 °F 38% 30.05 in 10.0 mi South 11.5 mph - N/A   Clear
1:56 AM 61.9 °F 36.9 °F 39% 30.03 in 10.0 mi South 10.4 mph - N/A   Clear
2:56 AM 59.9 °F 36.9 °F 42% 30.04 in 10.0 mi South 10.4 mph - N/A   Clear
3:56 AM 59.0 °F 37.9 °F 46% 30.04 in 10.0 mi South 11.5 mph - N/A   Clear
4:56 AM 59.9 °F 37.9 °F 44% 30.05 in 10.0 mi South 12.7 mph - N/A   Clear
5:56 AM 59.0 °F 38.8 °F 47% 30.06 in 10.0 mi South 12.7 mph - N/A   Clear
6:56 AM 57.9 °F 41.0 °F 53% 30.08 in 10.0 mi South 9.2 mph - N/A   Clear
7:56 AM 61.9 °F 41.9 °F 48% 30.10 in 10.0 mi SSW 12.7 mph - N/A   Clear
8:56 AM 64.9 °F 45.9 °F 50% 30.10 in 10.0 mi SSW 15.0 mph - N/A   Clear
9:56 AM 65.8 °F 45.9 °F 48% 30.11 in 10.0 mi SW 17.3 mph 24.2 mph N/A   Mostly Cloudy
10:56 AM 70.0 °F 46.9 °F 44% 30.10 in 10.0 mi SW 20.7 mph 25.3 mph N/A   Clear
11:56 AM 68.9 °F 43.0 °F 39% 30.10 in 10.0 mi SW 19.6 mph 25.3 mph N/A   Partly Cloudy
12:56 PM 72.0 °F 43.9 °F 36% 30.07 in 10.0 mi SW 18.4 mph 26.5 mph N/A   Clear
1:56 PM 72.9 °F 43.9 °F 35% 30.04 in 10.0 mi SSW 15.0 mph 25.3 mph N/A   Clear
2:56 PM 73.9 °F 43.0 °F 33% 30.04 in 10.0 mi SW 13.8 mph 20.7 mph N/A   Scattered Clouds
3:56 PM 72.0 °F 41.0 °F 33% 30.03 in 10.0 mi WSW 12.7 mph - N/A   Partly Cloudy
4:56 PM 70.9 °F 43.0 °F 37% 30.04 in 10.0 mi SW 12.7 mph - N/A   Mostly Cloudy
5:56 PM 70.0 °F 41.0 °F 35% 30.03 in 10.0 mi SW 10.4 mph - N/A   Mostly Cloudy
6:56 PM 66.9 °F 41.9 °F 40% 30.03 in 10.0 mi SW 5.8 mph - N/A   Mostly Cloudy
7:56 PM 65.8 °F 39.9 °F 39% 30.04 in 10.0 mi SSW 8.1 mph - N/A   Mostly Cloudy
8:56 PM 63.9 °F 41.9 °F 45% 30.05 in 10.0 mi SSW 4.6 mph - N/A   Mostly Cloudy
9:56 PM 59.0 °F 43.0 °F 55% 30.06 in 10.0 mi Calm Calm - N/A   Scattered Clouds
10:56 PM 48.9 °F 43.0 °F 80% 30.05 in 10.0 mi Calm Calm - N/A   Clear
11:56 PM 46.9 °F 43.0 °F 86% 30.05 in 10.0 mi Calm Calm - N/A   Clear